sat.trackr.live / text

‹ back to catalog

STARLINK-2685

NORAD 48468 · 2021-040AS

PAYLOAD ACTIVE UNKNOWN

§ Identity

Operator
Country
US
Launch date
2021-05-09
Launch site
AFETR
Launch vehicle
Mass (kg)
RCS (m²)

Purposes: comms

External: N2YO · Heavens-Above · Gunter

§ Orbital elements

Epoch: 2026-09-19T23:46:06.564000Z

Period
93.80 min
Inclination
53.1593°
Eccentricity
0.0002210
Mean motion
15.35144702 rev/d
Perigee alt
459.0 km
Apogee alt
462.0 km
Semi-major
6,838.6 km
B*
1.0971e-3
RAAN
6.7179°
Arg perigee
27.8451°
Mean anomaly
332.2670°
Rev number
29,628

§ Raw data

STARLINK-26851 48468U 21040AS  26262.99035375  .00037771  00000+0  10971-2 0  99902 48468  53.1593   6.7179 0002210  27.8451 332.2670 15.35144702296282

JSON: /api/v1/satellites/48468 · /tle

For live sub-satellite position, see the globe view (requires WebGL).

§ Visibility from observer

Set your observer location to see the next 7 days of passes ≥ 10°. The values pass through the URL so the page stays shareable.

No JS? Fill the form by hand. The geolocation button needs JavaScript.